LGX37B EVRA-EPPW

Flight info

Callsign LGX37B
Flight time N/A
Altitude 34000
Route ASKOR DCT NERIG/K0863F340 DCT GOMED/N0465F340 M994 NIKMI N191 GRUDA
Aircraft B38M/M-SDE1FGHILORVWXY/HB1

Departure

Time 2026-04-29 15:35
Airport Riga International Airport (EVRA)

Arrival

Time N/A
Airport Powidz Military Air Base (EPPW)
Time Latitude Longitude Altitude Speed Heading
2026-04-29 15:22 56.92296 23.97677 43 ft 0 kts 186°
2026-04-29 15:27 56.92313 23.97680 42 ft 4 kts 195°
2026-04-29 15:28 56.92336 23.97700 43 ft 4 kts 225°
2026-04-29 15:28 56.92346 23.97723 43 ft 4 kts 259°
2026-04-29 15:28 56.92347 23.97739 43 ft 0 kts 275°
2026-04-29 15:31 56.92348 23.97703 43 ft 11 kts 275°
2026-04-29 15:32 56.92337 23.97516 41 ft 21 kts 219°
2026-04-29 15:32 56.92175 23.97476 41 ft 16 kts 180°
2026-04-29 15:32 56.92018 23.97452 43 ft 24 kts 186°
2026-04-29 15:32 56.91865 23.97431 44 ft 25 kts 184°
2026-04-29 15:33 56.91681 23.97401 43 ft 26 kts 186°
2026-04-29 15:33 56.91557 23.97377 43 ft 27 kts 186°
2026-04-29 15:33 56.91368 23.97343 43 ft 24 kts 185°
2026-04-29 15:33 56.91169 23.97312 43 ft 31 kts 185°
2026-04-29 15:34 56.90956 23.97226 41 ft 34 kts 208°
2026-04-29 15:34 56.90755 23.97152 43 ft 21 kts 186°
2026-04-29 15:34 56.90649 23.96970 43 ft 23 kts 274°
2026-04-29 15:34 56.90832 23.96862 41 ft 58 kts
2026-04-29 15:35 56.91469 23.96970 44 ft 124 kts
2026-04-29 15:35 56.92460 23.97133 377 ft 152 kts
2026-04-29 15:35 56.93597 23.97319 1016 ft 169 kts
2026-04-29 15:35 56.94818 23.97488 1855 ft 185 kts
2026-04-29 15:36 56.96130 23.96977 2530 ft 207 kts 324°
2026-04-29 15:36 56.96950 23.94787 3473 ft 222 kts 285°
2026-04-29 15:36 56.96800 23.91894 4350 ft 244 kts 248°
2026-04-29 15:36 56.95746 23.89380 5255 ft 261 kts 226°
2026-04-29 15:37 56.94372 23.87131 6286 ft 268 kts 224°
2026-04-29 15:37 56.92998 23.84764 7340 ft 272 kts 230°
2026-04-29 15:37 56.91776 23.82094 8341 ft 276 kts 235°
2026-04-29 15:37 56.90629 23.79233 9314 ft 281 kts 236°
2026-04-29 15:38 56.89457 23.76318 10243 ft 288 kts 235°
2026-04-29 15:38 56.88190 23.73313 10851 ft 308 kts 234°
2026-04-29 15:38 56.86812 23.70167 11408 ft 325 kts 234°
2026-04-29 15:38 56.85349 23.66867 11928 ft 343 kts 234°
2026-04-29 15:39 56.83818 23.63388 12422 ft 359 kts 234°
2026-04-29 15:39 56.82241 23.59781 13140 ft 367 kts 234°
2026-04-29 15:39 56.80636 23.56104 13913 ft 373 kts 234°
2026-04-29 15:39 56.79004 23.52373 14682 ft 379 kts 234°
2026-04-29 15:40 56.77346 23.48593 15436 ft 385 kts 234°
2026-04-29 15:40 56.75681 23.44809 16154 ft 390 kts 234°
2026-04-29 15:40 56.73969 23.40924 16863 ft 395 kts 234°
2026-04-29 15:40 56.72234 23.36991 17570 ft 401 kts 234°
2026-04-29 15:41 56.70477 23.33014 18238 ft 406 kts 234°
2026-04-29 15:41 56.68698 23.28994 18873 ft 411 kts 234°
2026-04-29 15:41 56.66891 23.24917 19474 ft 416 kts 234°
2026-04-29 15:41 56.65063 23.20799 20068 ft 421 kts 234°
2026-04-29 15:42 56.63212 23.16638 20632 ft 426 kts 234°
2026-04-29 15:42 56.61338 23.12431 21201 ft 431 kts 234°
2026-04-29 15:42 56.59440 23.08179 21746 ft 435 kts 234°
2026-04-29 15:42 56.57523 23.03893 22274 ft 440 kts 234°
2026-04-29 15:43 56.55586 22.99569 22779 ft 444 kts 234°
2026-04-29 15:43 56.53626 22.95202 23262 ft 449 kts 234°
2026-04-29 15:43 56.51641 22.90787 23758 ft 454 kts 234°
2026-04-29 15:43 56.49639 22.86340 24244 ft 458 kts 234°
2026-04-29 15:44 56.47611 22.81849 24714 ft 462 kts 234°
2026-04-29 15:44 56.45566 22.77325 25160 ft 467 kts 234°
2026-04-29 15:44 56.43494 22.72748 25587 ft 472 kts 234°
2026-04-29 15:44 56.41402 22.68138 26000 ft 477 kts 234°
2026-04-29 15:45 56.39313 22.63546 26387 ft 481 kts 234°
2026-04-29 15:45 56.36966 22.59156 26779 ft 489 kts 225°
2026-04-29 15:45 56.34436 22.54990 27137 ft 495 kts 225°
2026-04-29 15:45 56.31870 22.50822 27497 ft 499 kts 224°
2026-04-29 15:46 56.29272 22.46641 27854 ft 503 kts 224°
2026-04-29 15:46 56.26651 22.42432 28177 ft 507 kts 224°
2026-04-29 15:46 56.24010 22.38182 28501 ft 511 kts 224°
2026-04-29 15:46 56.21355 22.33897 28822 ft 515 kts 224°
2026-04-29 15:47 56.18678 22.29579 29145 ft 519 kts 224°
2026-04-29 15:47 56.15973 22.25236 29458 ft 523 kts 224°
2026-04-29 15:47 56.13251 22.20884 29766 ft 526 kts 224°
2026-04-29 15:47 56.10508 22.16507 30039 ft 530 kts 224°
2026-04-29 15:48 56.07739 22.12096 30306 ft 534 kts 224°
2026-04-29 15:48 56.04957 22.07673 30590 ft 536 kts 224°
2026-04-29 15:48 56.02159 22.03231 30891 ft 539 kts 224°
2026-04-29 15:48 55.99350 21.98777 31185 ft 541 kts 224°
2026-04-29 15:49 55.96531 21.94318 31443 ft 543 kts 224°
2026-04-29 15:49 55.93700 21.89848 31739 ft 542 kts 224°
2026-04-29 15:49 55.90877 21.85402 32072 ft 541 kts 224°